sat.trackr.live / text

‹ back to catalog

STARLINK-32687

NORAD 63565 · 2025-075T

PAYLOAD ACTIVE UNKNOWN

§ Identity

Operator
Country
US
Launch date
2025-04-13
Launch site
AFETR
Launch vehicle
Mass (kg)
RCS (m²)

Purposes: comms

External: N2YO · Heavens-Above · Gunter

§ Orbital elements

Epoch: 2026-05-24T20:21:49.290624Z

Period
94.27 min
Inclination
42.9962°
Eccentricity
0.0001794
Mean motion
15.27586306 rev/d
Perigee alt
481.8 km
Apogee alt
484.3 km
Semi-major
6,861.2 km
B*
5.0418e-4
RAAN
200.6081°
Arg perigee
277.3588°
Mean anomaly
82.7059°
Rev number
6,358

§ Raw data

STARLINK-326871 63565U 25075T   26144.84848716  .00013640  00000+0  50418-3 0  99912 63565  42.9962 200.6081 0001794 277.3588  82.7059 15.27586306 63583

JSON: /api/v1/satellites/63565 · /tle

For live sub-satellite position, see the globe view (requires WebGL).

§ Visibility from observer

Set your observer location to see the next 7 days of passes ≥ 10°. The values pass through the URL so the page stays shareable.

No JS? Fill the form by hand. The geolocation button needs JavaScript.